Flag for U.S.A. Weather past 2 weeks in Jersey City, New Jersey, U.S.A.

Now
76 °F

Overcast.


Feels Like: 78 °F
Forecast: 62 / 79 °F
Wind: 12 mph from South

Location: Newark International Airport

Current Time: Aug 30, 2014 at 6:36:39 PM

Latest Report: Aug 30, 2014 at 5:51 PM


Visibility: 10 mi

Pressure: 30.16 "Hg

Humidity: 69%

Dew point: 65 °F

Location of Jersey CityLocation

Historic Weather in Jersey City — Graph

°F

Jersey City temperature yesterday

Maximum temperature yesterday: 78 °F (at 2:51 PM)
Minimum temperature yesterday: 61 °F (at 3:51 AM)
Average temperature yesterday: 70 °F

Past Weeks' High & Low Weather Summary

 TemperatureHumidityPressure
High92 °F (Aug 27, 1:51 PM)90% (Aug 22, 12:51 AM)30.27 "Hg (Aug 22, 12:51 AM)
Low58 °F (Aug 16, 6:51 AM)32% (Aug 28, 3:51 PM)29.81 "Hg (Aug 17, 3:51 PM)
Average74 °F60%30.02 "Hg
* Reported Aug 15 4:51 PM — Aug 30 4:51 PM, Jersey City, Weather by CustomWeather, © 2014

Note: Actual official high and low records may vary slightly from our data, if they occured in-between our weather recording intervals... More about our weather records

Advertising

Jersey City weather history for previous 24 hours

 ConditionsComfort  
Time TempWeatherWind HumidityBarometerVisibility
4:51 PM
Aug 30
76 °FMore clouds than sun.9 mph69%30.16 "Hg10 mi
3:51 PM76 °FMostly cloudy.7 mph67%30.18 "Hg10 mi
2:51 PM77 °FMore clouds than sun.9 mph60%30.19 "Hg10 mi
1:51 PM76 °FOvercast.10 mph62%30.22 "Hg10 mi
12:51 PM77 °FPartly sunny.7 mph54%30.22 "Hg10 mi
11:51 AM76 °FScattered clouds.12 mph52%30.24 "Hg10 mi
10:51 AM75 °FScattered clouds.5 mph52%30.25 "Hg10 mi
9:51 AM73 °FScattered clouds.6 mph57%30.26 "Hg10 mi
8:51 AM71 °FScattered clouds.3 mph61%30.27 "Hg10 mi
7:51 AM68 °FPartly sunny.No wind70%30.27 "Hg10 mi
6:51 AM64 °FPassing clouds.No wind75%30.27 "Hg10 mi
5:51 AM62 °FPassing clouds.No wind78%30.27 "Hg10 mi
4:51 AM63 °FPassing clouds.3 mph75%30.26 "Hg10 mi
3:51 AM65 °FPassing clouds.No wind70%30.25 "Hg10 mi
2:51 AM66 °FPartly cloudy.No wind68%30.25 "Hg10 mi
1:51 AM67 °FPassing clouds.No wind66%30.25 "Hg10 mi
12:51 AM68 °FPassing clouds.No wind61%30.25 "Hg10 mi
11:51 PM
Aug 29
69 °FPassing clouds.3 mph59%30.25 "Hg10 mi
10:51 PM69 °FPassing clouds.3 mph61%30.24 "Hg10 mi
9:51 PM70 °FPassing clouds.5 mph59%30.24 "Hg10 mi
8:51 PM71 °FPassing clouds.7 mph55%30.22 "Hg10 mi
7:51 PM71 °FPartly sunny.8 mph55%30.20 "Hg10 mi
6:51 PM73 °FPartly sunny.9 mph50%30.19 "Hg10 mi
Weather by CustomWeather, © 2014

See weather overviewHow to use our weather pages